Regional Weather Roundup
Issued by NWS Cleveland, OH

Home | Current Version | Previous Version | Text Only | Print | Product List | Glossary Off
Versions: 1 2 3 4 5 6 7 8 9 10 11 12 13 14 15 16 17 18 19 20 21 22 23 24 25 26 27 28 29 30 31 32 33 34 35 36 37 38 39 40 41 42 43 44 45 46 47 48 49 50

000
ASUS41 KCLE 261810
RWRCLE
OHIO REGIONAL WEATHER ROUNDUP
NATIONAL WEATHER SERVICE WILMINGTON, OH
200 PM EDT FRI AUG 26 2016

NOTE: "FAIR" INDICATES FEW OR NO CLOUDS BELOW 12,000 FEET WITH NO
SIGNIFICANT WEATHER AND/OR OBSTRUCTIONS TO VISIBILITY.

OHZ001>008-015>018-024>027-034-035-043-044-261900-
   NORTHWEST OHIO

CITY           SKY/WX    TMP DP  RH WIND       PRES   REMARKS
DEFIANCE       FAIR      81  61  50 CALM      30.16F
FINDLAY        FAIR      83  61  47 S5        30.15F
TOLEDO EXPRESS FAIR      81  61  50 W8        30.15F
TOLEDO EXEC    FAIR      82  62  50 VRB5      30.15F
LIMA           FAIR      81  63  54 CALM      30.17F
$$

OHZ009>014-019>023-028>033-038-089-261900-
   NORTHEAST OHIO

CITY           SKY/WX    TMP DP  RH WIND       PRES   REMARKS
CLE-HOPKINS    FAIR      81  63  54 CALM      30.17F
CLE-LAKEFRONT  FAIR      79  64  60 N5        30.14F
CUY CO. ARPT   MOSUNNY   81  63  54 NW7       30.16F
LORAIN-ELYRIA  FAIR      79  60  52 CALM      30.17S
ASHTABULA      FAIR      79  68  69 NW5       30.16S
AKRON-CANTON   FAIR      85  59  41 VRB3      30.16S
WOOSTER        FAIR      83  59  44 VRB3      30.16F
MANSFIELD      FAIR      83  56  39 W5        30.18S
YOUNGSTOWN     PTSUNNY   83  65  54 N8        30.16F
$$

OHZ042-051>053-060>062-070>072-077>081-261900-
  SOUTHWEST OHIO

CITY           SKY/WX    TMP DP  RH WIND       PRES   REMARKS
CINC-COVINGTON FAIR      88  73  61 CALM      30.13F HX  95
CINC-LUNKEN    PTSUNNY   90  75  62 MISG      30.11F HX 100
HAMILTON       FAIR      88  74  63 CALM      30.12F HX  96
DAYTON         NOT AVBL
WRIGHT-PAT AFB MOSUNNY   86  73  65 E5        30.14S HX  94
DAYTON GENERAL FAIR      87  71  58 CALM      30.13F HX  93
WILMINGTON     FAIR      88  73  61 SW6       30.14F HX  95
$$

OHZ036-037-039>041-045>050-054>059-063>069-073>076-082>088-261900-
  CENTRAL AND SOUTHEAST OHIO

CITY           SKY/WX    TMP DP  RH WIND       PRES   REMARKS
COLUMBUS       FAIR      86  70  58 VRB6      30.13F HX  90
OSU AIRPORT    FAIR      86  71  60 CALM      30.14F HX  91
BOLTON FIELD   MOSUNNY   84  73  70 CALM      30.15F HX  91
RICKENBACK AFB FAIR      86  71  61 CALM      30.13F HX  92
NEWARK         PTSUNNY   86  72  62 NW5       30.14S HX  92
MARION         FAIR      81  60  48 N5        30.17S
LANCASTER      PTSUNNY   86  72  62 NW7       30.15R HX  92
ZANESVILLE     FAIR      87  71  58 VRB3      30.14S HX  93
NEW PHILLY     FAIR      86  66  51 W6        30.14F
$$




USA.gov is the U.S. government's official web portal to all federal, state and local government web resources and services.